Location: Newark
(26.0814°N, 97.8289°W)
Time: 06:39:15
(UTC+00:00)

LightSail 2 - Pass Details

Date: 26 January 2020
Orbit: 697 x 724 km, 24.0° (Epoch: 27 February)

Event Time Altitude Azimuth Distance (km) Brightness Sun altitude
Rises 03:17:57 0° 267° (W) 3,089 9.3 -42.2°
Reaches altitude 10° 03:20:49 10° 252° (WSW) 2,174 8.2 -42.9°
Enters shadow 03:20:50 10° 252° (WSW) 2,170 8.2 -42.9°
